Wetterdaten: Donnerstag, 10.01.2013
Datum Zeit Temp. Auen Feucht Auen Luftdruck Regen Richtung Richtung Windben
10.01.2013 00:00 2,2 C 96 % 1016,4 hPa 0,0 mm W-NW 289 9,7 km/h (2 Bft)
10.01.2013 00:05 2,1 C 96 % 1016,3 hPa 0,0 mm W 262 9,7 km/h (2 Bft)
10.01.2013 00:10 2,1 C 96 % 1016,3 hPa 0,0 mm W 261 6,4 km/h (2 Bft)
10.01.2013 00:15 2,1 C 96 % 1016,3 hPa 0,0 mm W-SW 255 6,4 km/h (2 Bft)
10.01.2013 00:20 2,0 C 96 % 1016,3 hPa 0,0 mm W 269 9,7 km/h (2 Bft)
10.01.2013 00:25 2,0 C 96 % 1016,3 hPa 0,0 mm W-SW 256 9,7 km/h (2 Bft)
10.01.2013 00:30 1,9 C 96 % 1016,3 hPa 0,0 mm W 259 6,4 km/h (2 Bft)
10.01.2013 00:35 1,8 C 96 % 1016,2 hPa 0,0 mm W-SW 252 8,0 km/h (2 Bft)
10.01.2013 00:40 1,8 C 96 % 1016,1 hPa 0,0 mm W-SW 246 8,0 km/h (2 Bft)
10.01.2013 00:45 1,7 C 96 % 1016,1 hPa 0,0 mm W 270 6,4 km/h (2 Bft)
10.01.2013 00:50 1,6 C 96 % 1016,0 hPa 0,0 mm W 275 8,0 km/h (2 Bft)
10.01.2013 00:55 1,6 C 96 % 1015,8 hPa 0,0 mm W 264 4,8 km/h (1 Bft)
10.01.2013 01:00 1,6 C 96 % 1015,8 hPa 0,0 mm W 265 4,8 km/h (1 Bft)
10.01.2013 01:05 1,5 C 96 % 1015,8 hPa 0,0 mm W 261 4,8 km/h (1 Bft)
10.01.2013 01:10 1,5 C 96 % 1015,9 hPa 0,0 mm W 273 4,8 km/h (1 Bft)
10.01.2013 01:15 1,4 C 96 % 1015,9 hPa 0,0 mm W 267 6,4 km/h (2 Bft)
10.01.2013 01:20 1,4 C 96 % 1016,0 hPa 0,0 mm W 269 8,0 km/h (2 Bft)
10.01.2013 01:25 1,4 C 96 % 1016,1 hPa 0,0 mm W 265 12,9 km/h (3 Bft)
10.01.2013 01:30 1,4 C 96 % 1016,2 hPa 0,0 mm W-NW 284 17,7 km/h (3 Bft)
10.01.2013 01:35 1,6 C 96 % 1016,3 hPa 0,0 mm W 276 17,7 km/h (3 Bft)
10.01.2013 01:40 1,7 C 96 % 1016,3 hPa 0,0 mm W 279 19,3 km/h (3 Bft)
10.01.2013 01:45 1,8 C 96 % 1016,4 hPa 0,0 mm W-NW 288 17,7 km/h (3 Bft)
10.01.2013 01:50 1,8 C 96 % 1016,3 hPa 0,0 mm SW 234 17,7 km/h (3 Bft)
10.01.2013 01:55 1,9 C 95 % 1016,4 hPa 0,0 mm W-NW 296 20,9 km/h (4 Bft)
10.01.2013 02:00 1,9 C 95 % 1016,5 hPa 0,0 mm W 275 19,3 km/h (3 Bft)
10.01.2013 02:05 1,9 C 94 % 1016,5 hPa 0,0 mm W-NW 292 17,7 km/h (3 Bft)
10.01.2013 02:10 1,9 C 94 % 1016,5 hPa 0,0 mm W-NW 298 16,1 km/h (3 Bft)
10.01.2013 02:15 1,9 C 94 % 1016,6 hPa 0,0 mm W 277 14,5 km/h (3 Bft)
10.01.2013 02:20 1,9 C 94 % 1016,6 hPa 0,0 mm W-NW 286 12,9 km/h (3 Bft)
10.01.2013 02:25 1,9 C 94 % 1016,5 hPa 0,0 mm W 279 12,9 km/h (3 Bft)
10.01.2013 02:30 1,9 C 94 % 1016,6 hPa 0,0 mm W 269 11,3 km/h (2 Bft)
10.01.2013 02:35 1,9 C 94 % 1016,5 hPa 0,0 mm W-SW 251 11,3 km/h (2 Bft)
10.01.2013 02:40 1,9 C 93 % 1016,5 hPa 0,0 mm W 261 11,3 km/h (2 Bft)
10.01.2013 02:45 1,8 C 93 % 1016,5 hPa 0,0 mm W 259 9,7 km/h (2 Bft)
10.01.2013 02:50 1,7 C 94 % 1016,5 hPa 0,2 mm W 265 11,3 km/h (2 Bft)
10.01.2013 02:55 1,6 C 94 % 1016,4 hPa 0,0 mm W-SW 253 11,3 km/h (2 Bft)
10.01.2013 03:00 1,6 C 94 % 1016,4 hPa 0,2 mm W 263 8,0 km/h (2 Bft)
10.01.2013 03:05 1,4 C 94 % 1016,4 hPa 0,0 mm W 263 9,7 km/h (2 Bft)
10.01.2013 03:10 1,3 C 94 % 1016,4 hPa 0,2 mm W 275 8,0 km/h (2 Bft)
10.01.2013 03:15 1,2 C 94 % 1016,4 hPa 0,2 mm W 267 6,4 km/h (2 Bft)
10.01.2013 03:20 1,2 C 94 % 1016,3 hPa 0,2 mm W 267 4,8 km/h (1 Bft)
10.01.2013 03:25 1,1 C 94 % 1016,3 hPa 0,2 mm W 271 4,8 km/h (1 Bft)
10.01.2013 03:30 1,1 C 95 % 1016,4 hPa 0,4 mm W 266 4,8 km/h (1 Bft)
10.01.2013 03:35 1,0 C 95 % 1016,4 hPa 0,0 mm W-SW 258 6,4 km/h (2 Bft)
10.01.2013 03:40 1,0 C 95 % 1016,3 hPa 0,2 mm W 265 6,4 km/h (2 Bft)
10.01.2013 03:45 1,0 C 95 % 1016,4 hPa 0,0 mm W 277 8,0 km/h (2 Bft)
10.01.2013 03:50 0,9 C 95 % 1016,3 hPa 0,2 mm W-SW 250 6,4 km/h (2 Bft)
10.01.2013 03:55 0,9 C 95 % 1016,2 hPa 0,0 mm W 259 4,8 km/h (1 Bft)
10.01.2013 04:00 0,9 C 95 % 1016,3 hPa 0,0 mm W 274 4,8 km/h (1 Bft)
10.01.2013 04:05 0,9 C 95 % 1016,1 hPa 0,0 mm W-SW 255 6,4 km/h (2 Bft)
10.01.2013 04:10 1,0 C 95 % 1016,0 hPa 0,0 mm W 268 6,4 km/h (2 Bft)
10.01.2013 04:15 1,0 C 96 % 1015,9 hPa 0,2 mm W 273 8,0 km/h (2 Bft)
10.01.2013 04:20 1,0 C 96 % 1015,8 hPa 0,0 mm W 281 11,3 km/h (2 Bft)
10.01.2013 04:25 1,0 C 96 % 1015,8 hPa 0,0 mm W-NW 282 9,7 km/h (2 Bft)
10.01.2013 04:30 1,0 C 96 % 1015,8 hPa 0,0 mm W-SW 256 6,4 km/h (2 Bft)
10.01.2013 04:35 1,0 C 96 % 1015,8 hPa 0,2 mm W-SW 252 6,4 km/h (2 Bft)
10.01.2013 04:40 1,0 C 96 % 1015,8 hPa 0,0 mm W-SW 257 6,4 km/h (2 Bft)
10.01.2013 04:45 1,0 C 96 % 1015,8 hPa 0,0 mm W 281 4,8 km/h (1 Bft)
10.01.2013 04:50 1,0 C 96 % 1015,8 hPa 0,2 mm W 279 8,0 km/h (2 Bft)
10.01.2013 04:55 1,0 C 96 % 1015,8 hPa 0,0 mm W 271 4,8 km/h (1 Bft)
10.01.2013 05:00 1,0 C 96 % 1015,8 hPa 0,2 mm W-SW 249 6,4 km/h (2 Bft)
10.01.2013 05:05 1,0 C 96 % 1015,8 hPa 0,0 mm W-SW 255 4,8 km/h (1 Bft)
10.01.2013 05:10 0,9 C 96 % 1015,7 hPa 0,0 mm W-NW 290 4,8 km/h (1 Bft)
10.01.2013 05:15 0,9 C 96 % 1015,7 hPa 0,2 mm W 266 4,8 km/h (1 Bft)
10.01.2013 05:20 0,9 C 96 % 1015,6 hPa 0,0 mm W-SW 255 6,4 km/h (2 Bft)
10.01.2013 05:25 0,9 C 96 % 1015,6 hPa 0,0 mm W 263 4,8 km/h (1 Bft)
10.01.2013 05:30 0,9 C 96 % 1015,6 hPa 0,0 mm W 274 4,8 km/h (1 Bft)
10.01.2013 05:35 0,9 C 96 % 1015,5 hPa 0,0 mm W 274 1,6 km/h (1 Bft)
10.01.2013 05:40 0,9 C 96 % 1015,5 hPa 0,0 mm W 274 0,0 km/h (0 Bft)
10.01.2013 05:45 0,9 C 96 % 1015,5 hPa 0,0 mm W 274 0,0 km/h (0 Bft)
10.01.2013 05:50 0,9 C 96 % 1015,4 hPa 0,0 mm W 270 0,0 km/h (0 Bft)
10.01.2013 05:55 0,9 C 96 % 1015,5 hPa 0,0 mm W-SW 257 3,2 km/h (1 Bft)
10.01.2013 06:00 0,9 C 96 % 1015,4 hPa 0,0 mm W-NW 298 4,8 km/h (1 Bft)
10.01.2013 06:05 1,0 C 96 % 1015,4 hPa 0,0 mm W 277 6,4 km/h (2 Bft)
10.01.2013 06:10 1,0 C 96 % 1015,5 hPa 0,0 mm W 277 4,8 km/h (1 Bft)
10.01.2013 06:15 1,1 C 96 % 1015,5 hPa 0,0 mm W 264 8,0 km/h (2 Bft)
10.01.2013 06:20 1,1 C 96 % 1015,5 hPa 0,0 mm W-SW 248 6,4 km/h (2 Bft)
10.01.2013 06:25 1,1 C 96 % 1015,6 hPa 0,0 mm W 268 6,4 km/h (2 Bft)
10.01.2013 06:30 1,1 C 96 % 1015,6 hPa 0,0 mm W-SW 254 3,2 km/h (1 Bft)
10.01.2013 06:35 1,1 C 96 % 1015,6 hPa 0,0 mm W-SW 254 3,2 km/h (1 Bft)
10.01.2013 06:40 1,1 C 96 % 1015,5 hPa 0,0 mm W-SW 255 1,6 km/h (1 Bft)
10.01.2013 06:45 1,1 C 96 % 1015,5 hPa 0,0 mm W 269 3,2 km/h (1 Bft)
10.01.2013 06:50 1,1 C 96 % 1015,5 hPa 0,2 mm W 269 3,2 km/h (1 Bft)
10.01.2013 06:55 1,1 C 96 % 1015,5 hPa 0,0 mm W 269 3,2 km/h (1 Bft)
10.01.2013 07:00 1,2 C 96 % 1015,5 hPa 0,0 mm W 268 4,8 km/h (1 Bft)
10.01.2013 07:06 1,2 C 96 % 1015,5 hPa 0,0 mm W 269 3,2 km/h (1 Bft)
10.01.2013 07:10 1,2 C 96 % 1015,4 hPa 0,0 mm W 269 1,6 km/h (1 Bft)
10.01.2013 07:15 1,2 C 96 % 1015,4 hPa 0,0 mm W 267 1,6 km/h (1 Bft)
10.01.2013 07:20 1,2 C 96 % 1015,4 hPa 0,0 mm W 267 1,6 km/h (1 Bft)
10.01.2013 07:25 1,2 C 96 % 1015,4 hPa 0,0 mm W 267 1,6 km/h (1 Bft)
10.01.2013 07:30 1,2 C 96 % 1015,4 hPa 0,0 mm W 267 3,2 km/h (1 Bft)
10.01.2013 07:35 1,2 C 96 % 1015,3 hPa 0,0 mm W 274 3,2 km/h (1 Bft)
10.01.2013 07:40 1,2 C 96 % 1015,3 hPa 0,0 mm W-SW 258 4,8 km/h (1 Bft)
10.01.2013 07:45 1,2 C 96 % 1015,4 hPa 0,0 mm W-SW 258 1,6 km/h (1 Bft)
10.01.2013 07:50 1,2 C 96 % 1015,4 hPa 0,0 mm W-SW 258 3,2 km/h (1 Bft)
10.01.2013 07:55 1,2 C 96 % 1015,4 hPa 0,0 mm W 259 1,6 km/h (1 Bft)
10.01.2013 08:00 1,3 C 96 % 1015,4 hPa 0,2 mm W 259 1,6 km/h (1 Bft)
10.01.2013 08:05 1,2 C 96 % 1015,4 hPa 0,0 mm W 259 0,0 km/h (0 Bft)
10.01.2013 08:10 1,2 C 96 % 1015,4 hPa 0,0 mm W 259 0,0 km/h (0 Bft)
10.01.2013 08:15 1,2 C 96 % 1015,5 hPa 0,0 mm W 259 1,6 km/h (1 Bft)
10.01.2013 08:20 1,3 C 96 % 1015,5 hPa 0,0 mm W 259 6,4 km/h (2 Bft)
10.01.2013 08:25 1,3 C 97 % 1015,4 hPa 0,0 mm W-SW 258 3,2 km/h (1 Bft)
10.01.2013 08:30 1,3 C 97 % 1015,3 hPa 0,0 mm W-SW 255 4,8 km/h (1 Bft)
10.01.2013 08:35 1,3 C 97 % 1015,4 hPa 0,0 mm W 259 3,2 km/h (1 Bft)
10.01.2013 08:40 1,4 C 97 % 1015,3 hPa 0,0 mm W 259 3,2 km/h (1 Bft)
10.01.2013 08:45 1,4 C 97 % 1015,2 hPa 0,2 mm W 275 6,4 km/h (2 Bft)
10.01.2013 08:50 1,4 C 97 % 1015,1 hPa 0,0 mm W-SW 247 6,4 km/h (2 Bft)
10.01.2013 08:55 1,4 C 97 % 1015,0 hPa 0,0 mm W-NW 288 3,2 km/h (1 Bft)
10.01.2013 09:00 1,4 C 97 % 1015,1 hPa 0,0 mm W 262 3,2 km/h (1 Bft)
10.01.2013 09:05 1,4 C 97 % 1015,1 hPa 0,0 mm W 262 1,6 km/h (1 Bft)
10.01.2013 09:10 1,4 C 97 % 1015,1 hPa 0,0 mm W 262 3,2 km/h (1 Bft)
10.01.2013 09:15 1,4 C 97 % 1015,1 hPa 0,0 mm W 262 0,0 km/h (0 Bft)
10.01.2013 09:20 1,4 C 97 % 1015,1 hPa 0,0 mm W 261 3,2 km/h (1 Bft)
10.01.2013 09:25 1,4 C 97 % 1015,1 hPa 0,0 mm W 263 3,2 km/h (1 Bft)
10.01.2013 09:30 1,4 C 97 % 1015,1 hPa 0,0 mm W 263 4,8 km/h (1 Bft)
10.01.2013 09:35 1,5 C 97 % 1015,1 hPa 0,0 mm W-SW 257 8,0 km/h (2 Bft)
10.01.2013 09:40 1,5 C 97 % 1015,1 hPa 0,0 mm W 259 4,8 km/h (1 Bft)
10.01.2013 09:45 1,5 C 97 % 1015,1 hPa 0,0 mm W-NW 289 4,8 km/h (1 Bft)
10.01.2013 09:50 1,5 C 97 % 1015,1 hPa 0,0 mm W 272 3,2 km/h (1 Bft)
10.01.2013 09:55 1,5 C 97 % 1015,1 hPa 0,0 mm W 273 3,2 km/h (1 Bft)
10.01.2013 10:00 1,5 C 97 % 1015,2 hPa 0,2 mm W 280 4,8 km/h (1 Bft)
10.01.2013 10:05 1,5 C 97 % 1015,1 hPa 0,0 mm W 265 6,4 km/h (2 Bft)
10.01.2013 10:10 1,5 C 97 % 1015,2 hPa 0,0 mm W 263 0,0 km/h (0 Bft)
10.01.2013 10:15 1,5 C 97 % 1015,3 hPa 0,0 mm W 262 8,0 km/h (2 Bft)
10.01.2013 10:20 1,5 C 97 % 1015,2 hPa 0,2 mm W 261 8,0 km/h (2 Bft)
10.01.2013 10:25 1,5 C 97 % 1015,3 hPa 0,0 mm W 281 8,0 km/h (2 Bft)
10.01.2013 10:30 1,5 C 97 % 1015,3 hPa 0,0 mm W-SW 250 8,0 km/h (2 Bft)
10.01.2013 10:35 1,5 C 97 % 1015,2 hPa 0,0 mm W-SW 247 6,4 km/h (2 Bft)
10.01.2013 10:40 1,5 C 97 % 1015,2 hPa 0,0 mm W 276 8,0 km/h (2 Bft)
10.01.2013 10:45 1,5 C 97 % 1015,1 hPa 0,2 mm W-SW 253 4,8 km/h (1 Bft)
10.01.2013 10:50 1,4 C 97 % 1015,2 hPa 0,0 mm W 273 4,8 km/h (1 Bft)
10.01.2013 10:55 1,4 C 97 % 1015,2 hPa 0,0 mm W-NW 283 4,8 km/h (1 Bft)
10.01.2013 11:00 1,4 C 97 % 1015,2 hPa 0,2 mm W 266 6,4 km/h (2 Bft)
10.01.2013 11:05 1,4 C 97 % 1015,1 hPa 0,0 mm W 264 4,8 km/h (1 Bft)
10.01.2013 11:10 1,4 C 97 % 1015,1 hPa 0,0 mm W 281 4,8 km/h (1 Bft)
10.01.2013 11:15 1,4 C 97 % 1015,0 hPa 0,2 mm W 275 3,2 km/h (1 Bft)
10.01.2013 11:20 1,4 C 97 % 1015,0 hPa 0,0 mm W 265 3,2 km/h (1 Bft)
10.01.2013 11:25 1,3 C 97 % 1015,0 hPa 0,2 mm W-SW 252 4,8 km/h (1 Bft)
10.01.2013 11:30 1,3 C 97 % 1014,9 hPa 0,0 mm W 267 6,4 km/h (2 Bft)
10.01.2013 11:35 1,4 C 97 % 1014,9 hPa 0,0 mm W 261 6,4 km/h (2 Bft)
10.01.2013 11:40 1,4 C 97 % 1014,7 hPa 0,0 mm W-SW 257 4,8 km/h (1 Bft)
10.01.2013 11:45 1,5 C 96 % 1014,6 hPa 0,2 mm W-SW 257 3,2 km/h (1 Bft)
10.01.2013 11:50 1,7 C 97 % 1014,5 hPa 0,0 mm W 265 8,0 km/h (2 Bft)
10.01.2013 11:55 1,8 C 97 % 1014,4 hPa 0,0 mm W 280 4,8 km/h (1 Bft)
10.01.2013 12:00 1,8 C 97 % 1014,4 hPa 0,0 mm W 259 6,4 km/h (2 Bft)
10.01.2013 12:05 1,8 C 96 % 1014,4 hPa 0,0 mm W 273 9,7 km/h (2 Bft)
10.01.2013 12:10 1,9 C 97 % 1014,5 hPa 0,0 mm W 273 3,2 km/h (1 Bft)
10.01.2013 12:15 1,9 C 97 % 1014,5 hPa 0,0 mm W-SW 257 4,8 km/h (1 Bft)
10.01.2013 12:20 1,9 C 97 % 1014,4 hPa 0,0 mm W 261 6,4 km/h (2 Bft)
10.01.2013 12:25 2,0 C 97 % 1014,2 hPa 0,0 mm W 273 6,4 km/h (2 Bft)
10.01.2013 12:30 2,1 C 96 % 1014,1 hPa 0,0 mm W 272 4,8 km/h (1 Bft)
10.01.2013 12:35 2,3 C 97 % 1014,0 hPa 0,0 mm W-NW 282 4,8 km/h (1 Bft)
10.01.2013 12:40 2,4 C 96 % 1014,0 hPa 0,0 mm W 273 6,4 km/h (2 Bft)
10.01.2013 12:45 2,6 C 97 % 1013,9 hPa 0,0 mm W 269 8,0 km/h (2 Bft)
10.01.2013 12:50 2,5 C 96 % 1013,9 hPa 0,0 mm W 279 6,4 km/h (2 Bft)
10.01.2013 12:55 2,5 C 96 % 1013,7 hPa 0,0 mm W-SW 251 9,7 km/h (2 Bft)
10.01.2013 13:00 2,5 C 96 % 1013,6 hPa 0,0 mm W 267 8,0 km/h (2 Bft)
10.01.2013 13:05 2,6 C 96 % 1013,5 hPa 0,0 mm W 281 8,0 km/h (2 Bft)
10.01.2013 13:10 2,6 C 96 % 1013,5 hPa 0,0 mm W 259 6,4 km/h (2 Bft)
10.01.2013 13:15 2,6 C 96 % 1013,5 hPa 0,0 mm W 264 8,0 km/h (2 Bft)
10.01.2013 13:20 2,6 C 96 % 1013,4 hPa 0,0 mm W 267 3,2 km/h (1 Bft)
10.01.2013 13:25 2,6 C 96 % 1013,4 hPa 0,0 mm W 267 6,4 km/h (2 Bft)
10.01.2013 13:30 2,6 C 96 % 1013,3 hPa 0,0 mm W 262 4,8 km/h (1 Bft)
10.01.2013 13:35 2,7 C 96 % 1013,3 hPa 0,0 mm W 267 6,4 km/h (2 Bft)
10.01.2013 13:40 2,7 C 96 % 1013,2 hPa 0,0 mm W 260 4,8 km/h (1 Bft)
10.01.2013 13:45 2,7 C 96 % 1013,2 hPa 0,0 mm W 271 8,0 km/h (2 Bft)
10.01.2013 13:50 2,7 C 96 % 1013,2 hPa 0,0 mm W 280 8,0 km/h (2 Bft)
10.01.2013 13:55 2,7 C 96 % 1013,3 hPa 0,0 mm W-NW 285 6,4 km/h (2 Bft)
10.01.2013 14:00 2,7 C 96 % 1013,2 hPa 0,0 mm W-SW 258 6,4 km/h (2 Bft)
10.01.2013 14:05 2,7 C 96 % 1013,2 hPa 0,0 mm W 267 8,0 km/h (2 Bft)
10.01.2013 14:10 2,7 C 96 % 1013,2 hPa 0,0 mm W-SW 258 8,0 km/h (2 Bft)
10.01.2013 14:15 2,6 C 96 % 1013,3 hPa 0,2 mm W-SW 257 8,0 km/h (2 Bft)
10.01.2013 14:20 2,6 C 96 % 1013,3 hPa 0,0 mm W-SW 243 8,0 km/h (2 Bft)
10.01.2013 14:25 2,5 C 96 % 1013,3 hPa 0,0 mm W 268 9,7 km/h (2 Bft)
10.01.2013 14:30 2,5 C 95 % 1013,2 hPa 0,2 mm W 265 6,4 km/h (2 Bft)
10.01.2013 14:35 2,4 C 95 % 1013,2 hPa 0,0 mm W-NW 283 9,7 km/h (2 Bft)
10.01.2013 14:40 2,4 C 95 % 1013,2 hPa 0,0 mm W-SW 250 9,7 km/h (2 Bft)
10.01.2013 14:45 2,4 C 95 % 1013,2 hPa 0,0 mm W 271 8,0 km/h (2 Bft)
10.01.2013 14:50 2,4 C 95 % 1013,2 hPa 0,0 mm W 267 6,4 km/h (2 Bft)
10.01.2013 14:55 2,4 C 95 % 1013,2 hPa 0,0 mm W 273 6,4 km/h (2 Bft)
10.01.2013 15:00 2,4 C 96 % 1013,2 hPa 0,0 mm W-SW 254 8,0 km/h (2 Bft)
10.01.2013 15:05 2,4 C 96 % 1013,2 hPa 0,0 mm W-SW 254 6,4 km/h (2 Bft)
10.01.2013 15:10 2,4 C 96 % 1013,1 hPa 0,0 mm W 271 6,4 km/h (2 Bft)
10.01.2013 15:15 2,5 C 96 % 1013,1 hPa 0,0 mm W-SW 254 9,7 km/h (2 Bft)
10.01.2013 15:20 2,5 C 96 % 1013,1 hPa 0,0 mm W 261 9,7 km/h (2 Bft)
10.01.2013 15:25 2,5 C 96 % 1013,1 hPa 0,0 mm W 281 4,8 km/h (1 Bft)
10.01.2013 15:30 2,5 C 96 % 1012,9 hPa 0,0 mm W 269 6,4 km/h (2 Bft)
10.01.2013 15:35 2,6 C 96 % 1012,9 hPa 0,0 mm W 277 6,4 km/h (2 Bft)
10.01.2013 15:40 2,6 C 96 % 1012,8 hPa 0,0 mm W-NW 292 4,8 km/h (1 Bft)
10.01.2013 15:45 2,6 C 96 % 1012,8 hPa 0,0 mm W 266 4,8 km/h (1 Bft)
10.01.2013 15:50 2,6 C 96 % 1012,8 hPa 0,0 mm W 271 3,2 km/h (1 Bft)
10.01.2013 15:55 2,7 C 96 % 1012,8 hPa 0,0 mm W 267 6,4 km/h (2 Bft)
10.01.2013 16:00 2,7 C 96 % 1012,8 hPa 0,0 mm W 263 4,8 km/h (1 Bft)
10.01.2013 16:05 2,7 C 96 % 1012,7 hPa 0,0 mm W-SW 254 6,4 km/h (2 Bft)
10.01.2013 16:10 2,7 C 96 % 1012,6 hPa 0,0 mm W 260 6,4 km/h (2 Bft)
10.01.2013 16:15 2,7 C 96 % 1012,6 hPa 0,0 mm W-SW 257 6,4 km/h (2 Bft)
10.01.2013 16:20 2,7 C 96 % 1012,5 hPa 0,0 mm W 276 6,4 km/h (2 Bft)
10.01.2013 16:25 2,7 C 96 % 1012,5 hPa 0,0 mm W 259 8,0 km/h (2 Bft)
10.01.2013 16:30 2,7 C 96 % 1012,5 hPa 0,0 mm W 259 8,0 km/h (2 Bft)
10.01.2013 16:35 2,8 C 96 % 1012,5 hPa 0,0 mm W 267 9,7 km/h (2 Bft)
10.01.2013 16:40 2,8 C 96 % 1012,5 hPa 0,0 mm W-NW 290 11,3 km/h (2 Bft)
10.01.2013 16:45 2,8 C 96 % 1012,5 hPa 0,0 mm W-NW 288 14,5 km/h (3 Bft)
10.01.2013 16:50 2,8 C 96 % 1012,4 hPa 0,0 mm W 279 11,3 km/h (2 Bft)
10.01.2013 16:55 2,9 C 96 % 1012,4 hPa 0,0 mm W 273 9,7 km/h (2 Bft)
10.01.2013 17:00 2,9 C 96 % 1012,3 hPa 0,0 mm W 267 11,3 km/h (2 Bft)
10.01.2013 17:05 2,9 C 96 % 1012,3 hPa 0,0 mm W-NW 290 9,7 km/h (2 Bft)
10.01.2013 17:10 2,9 C 96 % 1012,2 hPa 0,0 mm W 259 8,0 km/h (2 Bft)
10.01.2013 17:15 2,9 C 96 % 1012,3 hPa 0,0 mm W 281 6,4 km/h (2 Bft)
10.01.2013 17:20 2,9 C 96 % 1012,2 hPa 0,0 mm W 266 6,4 km/h (2 Bft)
10.01.2013 17:25 2,9 C 96 % 1012,1 hPa 0,0 mm W-NW 283 4,8 km/h (1 Bft)
10.01.2013 17:30 2,9 C 96 % 1012,1 hPa 0,0 mm W 279 4,8 km/h (1 Bft)
10.01.2013 17:35 2,9 C 96 % 1012,0 hPa 0,0 mm W 270 4,8 km/h (1 Bft)
10.01.2013 17:40 2,9 C 95 % 1012,0 hPa 0,0 mm W 269 8,0 km/h (2 Bft)
10.01.2013 17:45 2,9 C 95 % 1012,0 hPa 0,0 mm W 267 6,4 km/h (2 Bft)
10.01.2013 17:50 2,9 C 95 % 1011,9 hPa 0,0 mm W-NW 292 6,4 km/h (2 Bft)
10.01.2013 17:55 2,8 C 95 % 1011,9 hPa 0,0 mm NW 312 6,4 km/h (2 Bft)
10.01.2013 18:00 2,8 C 95 % 1011,8 hPa 0,0 mm W 279 4,8 km/h (1 Bft)
10.01.2013 18:05 2,8 C 95 % 1011,8 hPa 0,0 mm W 275 6,4 km/h (2 Bft)
10.01.2013 18:10 2,9 C 95 % 1011,8 hPa 0,0 mm W 267 4,8 km/h (1 Bft)
10.01.2013 18:15 2,9 C 95 % 1011,6 hPa 0,0 mm W 273 6,4 km/h (2 Bft)
10.01.2013 18:20 2,9 C 95 % 1011,6 hPa 0,0 mm W 268 3,2 km/h (1 Bft)
10.01.2013 18:25 2,9 C 95 % 1011,6 hPa 0,0 mm W 269 3,2 km/h (1 Bft)
10.01.2013 18:30 2,9 C 95 % 1011,6 hPa 0,0 mm W 269 0,0 km/h (0 Bft)
10.01.2013 18:35 2,9 C 95 % 1011,5 hPa 0,0 mm W 269 0,0 km/h (0 Bft)
10.01.2013 18:40 2,9 C 95 % 1011,3 hPa 0,0 mm W 269 0,0 km/h (0 Bft)
10.01.2013 18:45 2,9 C 95 % 1011,3 hPa 0,0 mm W 269 0,0 km/h (0 Bft)
10.01.2013 18:50 2,9 C 95 % 1011,1 hPa 0,0 mm W 269 0,0 km/h (0 Bft)
10.01.2013 18:55 2,9 C 95 % 1010,9 hPa 0,2 mm W 269 0,0 km/h (0 Bft)
10.01.2013 19:00 2,9 C 95 % 1011,0 hPa 0,0 mm W 273 4,8 km/h (1 Bft)
10.01.2013 19:05 2,9 C 95 % 1011,1 hPa 0,0 mm W 273 4,8 km/h (1 Bft)
10.01.2013 19:10 2,9 C 95 % 1011,0 hPa 0,0 mm W 261 4,8 km/h (1 Bft)
10.01.2013 19:15 2,9 C 95 % 1011,1 hPa 0,0 mm W 278 6,4 km/h (2 Bft)
10.01.2013 19:20 2,8 C 95 % 1011,1 hPa 0,0 mm W 267 8,0 km/h (2 Bft)
10.01.2013 19:25 2,8 C 95 % 1011,2 hPa 0,0 mm W 267 8,0 km/h (2 Bft)
10.01.2013 19:30 2,8 C 95 % 1011,2 hPa 0,4 mm W-NW 288 12,9 km/h (3 Bft)
10.01.2013 19:35 2,8 C 95 % 1011,3 hPa 0,2 mm W-NW 284 11,3 km/h (2 Bft)
10.01.2013 19:40 2,7 C 95 % 1011,2 hPa 0,2 mm W 272 12,9 km/h (3 Bft)
10.01.2013 19:45 2,6 C 95 % 1011,2 hPa 0,0 mm W-SW 246 11,3 km/h (2 Bft)
10.01.2013 19:50 2,6 C 95 % 1011,2 hPa 0,0 mm W 272 9,7 km/h (2 Bft)
10.01.2013 19:55 2,5 C 95 % 1011,2 hPa 0,0 mm W 269 9,7 km/h (2 Bft)
10.01.2013 20:00 2,4 C 95 % 1011,2 hPa 0,2 mm W 274 6,4 km/h (2 Bft)
10.01.2013 20:05 2,4 C 95 % 1011,2 hPa 0,2 mm W-SW 258 8,0 km/h (2 Bft)
10.01.2013 20:10 2,3 C 95 % 1011,1 hPa 0,2 mm W-SW 254 9,7 km/h (2 Bft)
10.01.2013 20:15 2,2 C 95 % 1011,1 hPa 0,0 mm W 279 8,0 km/h (2 Bft)
10.01.2013 20:20 2,2 C 95 % 1011,1 hPa 0,0 mm W 261 6,4 km/h (2 Bft)
10.01.2013 20:25 2,2 C 95 % 1011,0 hPa 0,0 mm W 281 4,8 km/h (1 Bft)
10.01.2013 20:30 2,1 C 95 % 1011,0 hPa 0,0 mm W-SW 257 4,8 km/h (1 Bft)
10.01.2013 20:35 2,1 C 95 % 1011,0 hPa 0,2 mm W 267 6,4 km/h (2 Bft)
10.01.2013 20:40 2,2 C 95 % 1011,1 hPa 0,0 mm W-NW 284 14,5 km/h (3 Bft)
10.01.2013 20:45 2,3 C 96 % 1011,2 hPa 0,4 mm W 272 12,9 km/h (3 Bft)
10.01.2013 20:50 2,3 C 96 % 1011,2 hPa 0,2 mm W 259 12,9 km/h (3 Bft)
10.01.2013 20:55 2,3 C 96 % 1011,2 hPa 0,2 mm W 265 11,3 km/h (2 Bft)
10.01.2013 21:00 2,3 C 96 % 1011,1 hPa 0,2 mm W 271 11,3 km/h (2 Bft)
10.01.2013 21:05 2,3 C 96 % 1011,1 hPa 0,0 mm W 274 9,7 km/h (2 Bft)
10.01.2013 21:10 2,3 C 96 % 1011,1 hPa 0,0 mm W 280 20,9 km/h (4 Bft)
10.01.2013 21:15 2,4 C 96 % 1011,1 hPa 0,0 mm W 275 12,9 km/h (3 Bft)
10.01.2013 21:20 2,5 C 96 % 1011,2 hPa 0,0 mm W-SW 240 17,7 km/h (3 Bft)
10.01.2013 21:25 2,6 C 96 % 1011,1 hPa 0,0 mm W 275 16,1 km/h (3 Bft)
10.01.2013 21:30 2,7 C 96 % 1011,1 hPa 0,0 mm W 265 20,9 km/h (4 Bft)
10.01.2013 21:35 2,7 C 96 % 1011,1 hPa 0,0 mm SW 234 14,5 km/h (3 Bft)
10.01.2013 21:40 2,7 C 96 % 1011,1 hPa 0,0 mm W 275 16,1 km/h (3 Bft)
10.01.2013 21:45 2,7 C 96 % 1011,0 hPa 0,0 mm W 279 16,1 km/h (3 Bft)
10.01.2013 21:50 2,7 C 96 % 1011,0 hPa 0,0 mm W 267 14,5 km/h (3 Bft)
10.01.2013 21:55 2,7 C 95 % 1011,0 hPa 0,0 mm W 265 14,5 km/h (3 Bft)
10.01.2013 22:00 2,8 C 95 % 1011,0 hPa 0,0 mm SW 230 14,5 km/h (3 Bft)
10.01.2013 22:05 2,7 C 95 % 1011,0 hPa 0,0 mm W-SW 246 12,9 km/h (3 Bft)
10.01.2013 22:10 2,7 C 95 % 1011,0 hPa 0,0 mm W 269 12,9 km/h (3 Bft)
10.01.2013 22:15 2,7 C 95 % 1010,9 hPa 0,0 mm W-SW 247 16,1 km/h (3 Bft)
10.01.2013 22:20 2,7 C 94 % 1011,0 hPa 0,0 mm W 279 14,5 km/h (3 Bft)
10.01.2013 22:25 2,7 C 94 % 1011,0 hPa 0,0 mm W 264 20,9 km/h (4 Bft)
10.01.2013 22:30 2,7 C 94 % 1011,0 hPa 0,0 mm W 272 12,9 km/h (3 Bft)
10.01.2013 22:35 2,7 C 94 % 1011,0 hPa 0,0 mm W-SW 252 16,1 km/h (3 Bft)
10.01.2013 22:40 2,7 C 93 % 1011,0 hPa 0,0 mm W 265 9,7 km/h (2 Bft)
10.01.2013 22:45 2,8 C 93 % 1011,1 hPa 0,0 mm W-SW 255 14,5 km/h (3 Bft)
10.01.2013 22:50 2,8 C 93 % 1011,0 hPa 0,0 mm W-SW 257 16,1 km/h (3 Bft)
10.01.2013 22:55 2,8 C 93 % 1011,0 hPa 0,0 mm W 268 11,3 km/h (2 Bft)
10.01.2013 23:00 2,8 C 93 % 1011,0 hPa 0,0 mm W-SW 247 8,0 km/h (2 Bft)
10.01.2013 23:05 2,8 C 93 % 1011,0 hPa 0,0 mm W-SW 256 8,0 km/h (2 Bft)
10.01.2013 23:10 2,8 C 93 % 1010,9 hPa 0,0 mm W 271 6,4 km/h (2 Bft)
10.01.2013 23:15 2,7 C 93 % 1010,9 hPa 0,0 mm W-SW 254 4,8 km/h (1 Bft)
10.01.2013 23:20 2,7 C 93 % 1010,9 hPa 0,0 mm W-SW 254 6,4 km/h (2 Bft)
10.01.2013 23:25 2,7 C 93 % 1011,0 hPa 0,0 mm W 274 6,4 km/h (2 Bft)
10.01.2013 23:30 2,7 C 94 % 1011,0 hPa 0,0 mm W 273 3,2 km/h (1 Bft)
10.01.2013 23:35 2,7 C 94 % 1011,0 hPa 0,0 mm W 264 4,8 km/h (1 Bft)
10.01.2013 23:40 2,6 C 94 % 1010,9 hPa 0,0 mm W 264 1,6 km/h (1 Bft)
10.01.2013 23:45 2,6 C 94 % 1010,9 hPa 0,0 mm W 264 1,6 km/h (1 Bft)
10.01.2013 23:50 2,6 C 94 % 1010,9 hPa 0,0 mm W 264 3,2 km/h (1 Bft)
10.01.2013 23:55 2,6 C 94 % 1010,9 hPa 0,0 mm W 268 6,4 km/h (2 Bft)
_ Min-Zeit 03:45 02:40 18:55 - - - 05:40
Minimum _ 0,9 C 93 % 1010,9 hPa - - - 0,0 km/h (0 Bft)
_ Max-Zeit 16:55 08:25 02:15 03:30 - - 01:55
Maximum _ 2,9 C 97 % 1016,6 hPa 0,4 mm - - 20,9 km/h
W-NW (4 Bft)
Durchschnitt _ 2,0 C 96 % 1013,9 hPa #8,2 mm W - 7,2 km/h (2 Bft)